リニア彗星

C/1998 M1 ( LINEAR )

English version
Home page
Updated on December 31, 2016

---------------------------------------------------------------------

・ プロフィール

発見日 1998年6月16日
発見光度 17.5等
発見者 Lincoln Laboratory Near-Earth Asteroid Research project

・ 写真集

・ 軌道要素

Epoch 1998 Nov. 3.0 TT = JDT 2451120.5
T 1998 Oct. 28.12059 TT                                 MPC
q   3.1181186            (2000.0)            P               Q
z  +0.0023346      Peri.   19.40543     +0.07518141     +0.93811135
 +/-0.000006       Node   256.06756     -0.95473790     -0.03012882
e   0.9927206      Incl.   20.38476     -0.28779036     +0.34502080
From 182 observations 1998 May 3-1999 Nov. 10, mean residual 0".7.

・ 星図

・ 光度変化

        m1 = 6.0 + 5 logΔ + 15.0 log r

---------------------------------------------------------------------

軌道要素はM.P.E.C. 2011-A08に掲載されたものです。
星図は StellaNavigator Ver.2.0 for Windows (アストロアーツ編著 / アスキー出版局刊) で作成したものです。
光度グラフはComet for Windowsで作成したものです。

---------------------------------------------------------------------

Copyright(C) Seiichi Yoshida (comet@aerith.net). All rights reserved.